Find Landsat 9

NORAD ID: 49260 Int'l Des: 2021-088 Owner: USGS/GSFC Country: US operational
LEOCIRCULARRETROGRADESSO

Live Position

Loading 3D Globe...

About Landsat 9

Description loading...

Upcoming Passes

Passes for default location (London). Set your location on the main map for personalized predictions.

Altitude History

Loading altitude history...

Two-Line Element Set

1 49260U 21088A 26107.28694002 .00000226 00000-0 60108-4 0 9996
2 49260 98.1881 178.4368 0001159 101.8549 258.2780 14.57114758242136
Epoch: Apr 17, 2026 • Age: 8 hours

Current Status

Altitude 704.8 km
Velocity 7.50 km/s
Sub-Earth Point 17.50°N, 102.32°E
Launch Date Sep 27, 2021
Age 4.5 years
Type earth observation

Technical Details

Classification Payload
Mass 2710.00 kg
Dry Mass 2390.00 kg
Total Mass 2710.00 kg
Length 5.80 m
Diameter 2.50 m
Span 13.00 m
Shape Cyl hex + pan
Manufacturer NGISGA
Bus Type Leostar-3
Phase Status In Orbit
Owner/State USGS/GSFC/US

Most Searched